Overview Statistics Trail Chart Weather Telemetry Raw packets
 

This is the latest recevied weather packets stored in our database for station/object K1RFS. If no packets are shown the sender has not sent any weather packets the latest 10 day(s).

<< 52 53 54 55 56 57 58 >>
Time Temp. Humidity Pressure Rain* Wind** Luminosity Snow
1788329172 21.11° C 41% 1000.6 hPa 0 mm - 0 W/m² -
1788328868 20.56° C 43% 1000.4 hPa 0 mm - 0 W/m² -
1788328564 21.11° C 44% 1000.6 hPa 0 mm - 0 W/m² -
1788328259 20.56° C 44% 1000.4 hPa 0 mm - 0 W/m² -
1788327954 20.56° C 46% 1000.5 hPa 0 mm - 0 W/m² -
1788327650 20° C 48% 1000.5 hPa 0 mm - 0 W/m² -
1788327345 20° C 50% 1000.5 hPa 0 mm - 0 W/m² -
1788327044 20° C 49% 1000.7 hPa 0 mm - 0 W/m² -
1788326739 20.56° C 48% 1000.7 hPa 0 mm - 0 W/m² -
1788326435 20.56° C 48% 1000.7 hPa 0 mm - 0 W/m² -
1788326134 21.11° C 47% 1000.2 hPa 0 mm - 0 W/m² -
1788325833 21.67° C 46% 1000.7 hPa 0 mm - 0 W/m² -
1788325528 21.67° C 46% 1000.8 hPa 0 mm - 0 W/m² -
1788325224 21.67° C 45% 1000.6 hPa 0 mm - 0 W/m² -
1788324919 21.67° C 45% 1000.8 hPa 0 mm - 0 W/m² -
1788324615 21.67° C 45% 1000.6 hPa 0 mm - 0 W/m² -
1788324309 21.67° C 45% 1000.9 hPa 0 mm - 0 W/m² -
1788324005 21.67° C 46% 1000.8 hPa 0 mm - 0 W/m² -
1788323700 21.67° C 46% 1000.7 hPa 0 mm - 0 W/m² -
1788323395 21.67° C 46% 1000.6 hPa 0 mm - 0 W/m² -
1788323095 21.67° C 46% 1000.7 hPa 0 mm - 0 W/m² -
1788322790 21.67° C 46% 1000.6 hPa 0 mm - 0 W/m² -
1788322485 21.67° C 47% 1000.5 hPa 0 mm - 0 W/m² -
1788322184 21.67° C 47% 1000.5 hPa 0 mm - 0 W/m² -
1788321878 22.22° C 46% 1000.6 hPa 0 mm - 0 W/m² -

* Rain latest hour (hover to see other rain measurements)
** Current wind speed in m/s (hover to see current wind gust speed)